This is the latest recevied weather packets stored in our database for station/object KN4CI-1. If no packets are shown the sender has not sent any weather packets the latest 10 day(s).
| Time | Temp. | Humidity | Pressure | Rain* | Wind** | Luminosity | Snow |
|---|---|---|---|---|---|---|---|
| 1777740370 | 18.33° C | 18% | 1017.6 hPa | 0 mm | 3.13 m/s, 351° | - | - |
| 1777740071 | 18.33° C | 18% | 1017.6 hPa | 0 mm | 2.68 m/s, 66° | - | - |
| 1777739451 | 17.78° C | 18% | 1017.6 hPa | 0 mm | 1.79 m/s, 343° | - | - |
| 1777739151 | 18.33° C | 18% | 1017.6 hPa | 0 mm | 1.79 m/s, 66° | - | - |
| 1777738547 | 17.78° C | 18% | 1017.6 hPa | 0 mm | 2.68 m/s, 71° | - | - |
| 1777737346 | 17.22° C | 18% | 1017.6 hPa | 0 mm | 1.79 m/s, 351° | - | - |
| 1777735829 | 16.67° C | 18% | 1017.6 hPa | 0 mm | 1.79 m/s, 351° | - | - |
| 1777735526 | 16.11° C | 19% | 1017.6 hPa | 0 mm | 3.58 m/s, 59° | - | - |
| 1777735227 | 16.11° C | 19% | 1017.6 hPa | 0 mm | 1.79 m/s, 48° | - | - |
| 1777734922 | 16.11° C | 19% | 1017.6 hPa | 0 mm | 2.68 m/s, 71° | - | - |
| 1777733419 | 15° C | 19% | 1017.6 hPa | 0 mm | 1.34 m/s, 7° | - | - |
| 1777733114 | 15° C | 19% | 1017.6 hPa | 0 mm | 1.79 m/s, 338° | - | - |
| 1777732814 | 15° C | 19% | 1017.6 hPa | 0 mm | 1.79 m/s, 0° | - | - |
| 1777732505 | 15° C | 19% | 1017.6 hPa | 0 mm | 2.24 m/s, 67° | - | - |
| 1777731901 | 15° C | 19% | 1017.6 hPa | 0 mm | 1.79 m/s, 77° | - | - |
| 1777731293 | 15° C | 19% | 1017.6 hPa | 0 mm | 1.34 m/s, 11° | - | - |
| 1777730375 | 14.44° C | 19% | 1016.6 hPa | 0 mm | 2.24 m/s, 85° | - | - |
| 1777729766 | 14.44° C | 19% | 1016.6 hPa | 0 mm | 1.34 m/s, 70° | - | - |
| 1777729462 | 14.44° C | 19% | 1016.6 hPa | 0 mm | 1.34 m/s, 6° | - | - |
| 1777729162 | 13.33° C | 19% | 1016.6 hPa | 0 mm | 2.24 m/s, 335° | - | - |
| 1777728862 | 13.33° C | 20% | 1016.6 hPa | 0 mm | 1.79 m/s, 339° | - | - |
| 1777728558 | 13.33° C | 19% | 1016.6 hPa | 0 mm | 1.34 m/s, 356° | - | - |
| 1777728258 | 13.33° C | 19% | 1016.6 hPa | 0 mm | 1.79 m/s, 347° | - | - |
| 1777727958 | 13.33° C | 19% | 1016.6 hPa | 0 mm | 1.79 m/s, 356° | - | - |
| 1777727654 | 13.33° C | 20% | 1016.6 hPa | 0 mm | 1.79 m/s, 343° | - | - |
* Rain latest hour (hover to see other rain measurements)
** Current wind speed in m/s (hover to see current wind gust speed)